Jackson, MI

12:31 AM EDT on May 22, 2018 (GMT -0400)
Jackson County-Reynolds

Weather History for KJXN - April, 2013

Change the Weather History Date:

Wednesday, April 24, 2013

  Actual Average Record
Temperature  
Mean Temperature 40 °F 51 °F  
Max Temperature 46 °F 62 °F 83 °F (1960)
Min Temperature 34 °F 40 °F 20 °F (2015)
Degree Days  
Heating Degree Days 25 14  
Month to date heating degree days 527 442  
Since 1 July heating degree days 6260 6266  
Cooling Degree Days 0 0  
Month to date cooling degree days 0 0  
Year to date cooling degree days 0 0  
Moisture  
Dew Point 33 °F    
Average Humidity 74    
Maximum Humidity 96    
Minimum Humidity 52    
Precipitation  
Precipitation 0.24 in 0.09 in 1.17 in (1950)
Month to date precipitation 5.50 2.08  
Year to date precipitation 10.49 6.76  
Sea Level Pressure  
Sea Level Pressure 29.92 in    
Wind  
Wind Speed 9 mph (NW)    
Max Wind Speed 16 mph    
Max Gust Speed 23 mph    
Visibility 7 miles    
Events Rain , Snow    
T = Trace of Precipitation, MM = Missing Value Source: NWS Daily Summary

Daily Weather History Graph

Daily Weather History Graph

Search for Another Location

Airport or City:

Astronomy

Apr. 24, 2013 Rise Set
Actual Time 6:42 AM EDT 8:29 PM EDT
Civil Twilight 6:12 AM EDT 8:59 PM EDT
Nautical Twilight 5:36 AM EDT 9:36 PM EDT
Astronomical Twilight 4:57 AM EDT 10:15 PM EDT
Moon 7:31 PM EDT (4/24) 5:47 AM EDT (4/24)
Length of Visible Light 14h 46m
Length of Day
13h 46m
Waxing Gibbous, 98% of the Moon is Illuminated
Apr 24
Waxing Gibbous
Apr 25
Full
May 2
Last Quarter
May 9
New
May 18
First Quarter

Hourly Weather History & Observations

Time (EDT) Temp. Windchill Dew Point Humidity Pressure Visibility Wind Dir Wind Speed Gust Speed Precip Events Conditions
12:56 AM 46.0 °F 41.9 °F 44.1 °F 93% 29.81 in 6.0 mi North 8.1 mph - 0.08 in Rain Rain
1:56 AM 45.0 °F 42.6 °F 43.0 °F 93% 29.80 in 4.0 mi North 4.6 mph - 0.08 in Rain Light Rain
2:24 AM 44.6 °F 40.2 °F 42.8 °F 93% 29.79 in 2.0 mi NNW 8.1 mph - 0.04 in Rain Rain
2:43 AM 44.6 °F 40.2 °F 42.8 °F 93% 29.79 in 3.0 mi North 8.1 mph - 0.06 in Rain Light Rain
2:56 AM 44.1 °F 37.7 °F 42.1 °F 93% 29.78 in 4.0 mi NNE 12.7 mph 17.3 mph 0.07 in Rain Light Rain
3:56 AM 41.0 °F 35.8 °F 39.0 °F 93% 29.79 in 4.0 mi North 8.1 mph - 0.02 in Rain Light Rain
4:56 AM 37.0 °F 28.9 °F 35.1 °F 93% 29.82 in 6.0 mi NNW 12.7 mph 20.7 mph 0.02 in   Overcast
5:56 AM 36.0 °F 29.0 °F 34.0 °F 93% 29.83 in 6.0 mi North 9.2 mph 17.3 mph 0.00 in   Overcast
6:56 AM 35.1 °F 26.9 °F 32.0 °F 89% 29.86 in 10.0 mi North 11.5 mph 19.6 mph N/A   Overcast
7:56 AM 34.0 °F 26.0 °F 30.9 °F 89% 29.88 in 7.0 mi North 10.4 mph 19.6 mph N/A   Overcast
8:56 AM 34.0 °F 25.5 °F 32.0 °F 92% 29.88 in 10.0 mi North 11.5 mph 18.4 mph N/A   Overcast
9:56 AM 34.0 °F 26.6 °F 32.0 °F 92% 29.87 in 4.0 mi North 9.2 mph - N/A   Overcast
10:56 AM 34.0 °F 27.2 °F 30.9 °F 89% 29.88 in 8.0 mi NNW 8.1 mph 18.4 mph N/A   Overcast
11:13 AM 33.8 °F 27.0 °F 32.0 °F 93% 29.87 in 10.0 mi NNW 8.1 mph - N/A   Overcast
11:32 AM 35.6 °F 29.2 °F 32.0 °F 87% 29.88 in 7.0 mi NNW 8.1 mph - 0.00 in Snow Light Snow
11:56 AM 35.1 °F 30.1 °F 32.0 °F 89% 29.92 in 4.0 mi NW 5.8 mph - 0.01 in Snow Light Snow
12:13 PM 35.6 °F 29.2 °F 32.0 °F 87% 29.89 in 2.5 mi NW 8.1 mph - 0.00 in Snow Light Snow
12:25 PM 35.6 °F 29.2 °F 33.8 °F 93% 29.88 in 3.0 mi NW 8.1 mph - 0.00 in Snow Light Snow
12:41 PM 35.6 °F 28.6 °F 33.8 °F 93% 29.88 in 2.5 mi NW 9.2 mph 17.3 mph 0.01 in Snow Light Snow
12:48 PM 35.6 °F 28.0 °F 32.0 °F 87% 29.89 in 1.8 mi NNW 10.4 mph 19.6 mph 0.01 in Snow Light Snow
12:56 PM 34.0 °F 27.2 °F 32.0 °F 92% 29.91 in 1.2 mi NW 8.1 mph 19.6 mph 0.01 in Snow Light Snow
1:16 PM 35.6 °F 28.0 °F 33.8 °F 93% 29.90 in 2.0 mi NW 10.4 mph 18.4 mph 0.01 in Snow Light Snow
1:30 PM 35.6 °F 28.6 °F 33.8 °F 93% 29.90 in 3.0 mi NW 9.2 mph - 0.01 in Snow Light Snow
1:53 PM 35.6 °F 28.6 °F 33.8 °F 93% 29.91 in 6.0 mi WNW 9.2 mph 18.4 mph 0.02 in Snow Light Snow
1:56 PM 35.1 °F 26.9 °F 33.1 °F 92% 29.93 in 6.0 mi WNW 11.5 mph - 0.02 in Snow Light Snow
2:05 PM 35.6 °F 29.2 °F 33.8 °F 93% 29.90 in 6.0 mi NW 8.1 mph - 0.00 in Snow Light Snow
2:14 PM 35.6 °F 28.6 °F 33.8 °F 93% 29.91 in 9.0 mi NW 9.2 mph - 0.00 in Snow Light Snow
2:54 PM 35.6 °F 28.0 °F 33.8 °F 93% 29.92 in 7.0 mi WNW 10.4 mph - 0.02 in Snow Light Snow
2:56 PM 37.0 °F 30.4 °F 34.0 °F 89% 29.95 in 9.0 mi WNW 9.2 mph - 0.02 in   Overcast
3:33 PM 37.4 °F 31.4 °F 33.8 °F 87% 29.93 in 9.0 mi WNW 8.1 mph - 0.00 in Rain Light Rain
3:40 PM 39.2 °F 33.0 °F 33.8 °F 81% 29.94 in 10.0 mi WNW 9.2 mph - 0.00 in Rain Light Rain
3:56 PM 39.0 °F 31.4 °F 33.1 °F 79% 29.96 in 10.0 mi West 12.7 mph 18.4 mph 0.00 in   Overcast
4:56 PM 39.9 °F 32.9 °F 30.0 °F 68% 29.98 in 10.0 mi West 11.5 mph 19.6 mph N/A   Overcast
5:56 PM 41.0 °F 33.5 °F 30.0 °F 65% 30.00 in 10.0 mi West 13.8 mph 18.4 mph N/A   Overcast
6:56 PM 41.0 °F 34.7 °F 28.0 °F 60% 30.04 in 10.0 mi West 10.4 mph 21.9 mph N/A   Overcast
7:56 PM 39.9 °F 32.9 °F 25.0 °F 55% 30.06 in 10.0 mi West 11.5 mph 18.4 mph N/A   Scattered Clouds
8:56 PM 37.9 °F 33.5 °F 21.9 °F 53% 30.10 in 10.0 mi West 5.8 mph - N/A   Clear
9:56 PM 36.0 °F 32.1 °F 23.0 °F 59% 30.13 in 10.0 mi WSW 4.6 mph - N/A   Clear
10:56 PM 35.1 °F 30.1 °F 23.0 °F 61% 30.16 in 10.0 mi SW 5.8 mph - N/A   Clear
11:56 PM 35.1 °F 29.3 °F 23.0 °F 61% 30.16 in 10.0 mi SW 6.9 mph - N/A   Clear